This is the latest recevied weather packets stored in our database for station/object W0AVQ. If no packets are shown the sender has not sent any weather packets the latest 10 day(s).
| Time | Temp. | Humidity | Pressure | Rain* | Wind** | Luminosity | Snow |
|---|---|---|---|---|---|---|---|
| 1778029035 | 10.56° C | 99% | 1009.1 hPa | 0 mm | - | 0 W/m² | - |
| 1778028731 | 11.11° C | 99% | 1009.2 hPa | 1.27 mm | - | 0 W/m² | - |
| 1778028427 | 11.67° C | 99% | 1009.1 hPa | 1.27 mm | - | 0 W/m² | - |
| 1778028125 | 11.11° C | 99% | 1009.4 hPa | 0 mm | - | 0 W/m² | - |
| 1778027820 | 11.11° C | 99% | 1008.9 hPa | 0 mm | - | 0 W/m² | - |
| 1778027517 | 11.11° C | 99% | 1008.8 hPa | 0 mm | - | 0 W/m² | - |
| 1778027213 | 11.11° C | 99% | 1008.7 hPa | 0 mm | - | 2 W/m² | - |
| 1778026909 | 11.11° C | 99% | 1008.8 hPa | 0 mm | - | 1 W/m² | - |
| 1778026605 | 11.11° C | 99% | 1008.7 hPa | 0 mm | - | 4 W/m² | - |
| 1778026303 | 11.11° C | 99% | 1008.7 hPa | 0 mm | - | 6 W/m² | - |
| 1778026000 | 11.67° C | 99% | 1008.7 hPa | 0 mm | - | 3 W/m² | - |
| 1778025697 | 11.67° C | 99% | 1008.7 hPa | 1.78 mm | - | 8 W/m² | - |
| 1778025395 | 11.67° C | 99% | 1008.7 hPa | 3.05 mm | - | 12 W/m² | - |
| 1778025092 | 11.67° C | 99% | 1009.1 hPa | 3.05 mm | - | 5 W/m² | - |
| 1778024789 | 11.67° C | 99% | 1009.5 hPa | 1.78 mm | - | 3 W/m² | - |
| 1778024485 | 11.67° C | 99% | 1009.5 hPa | 0 mm | - | 3 W/m² | - |
| 1778024183 | 11.67° C | 99% | 1009.6 hPa | 0 mm | - | 3 W/m² | - |
| 1778023880 | 11.67° C | 99% | 1009.4 hPa | 0 mm | - | 1 W/m² | - |
| 1778023578 | 11.67° C | 99% | 1009.2 hPa | 0 mm | - | 3 W/m² | - |
| 1778023275 | 11.67° C | 99% | 1009.1 hPa | 0 mm | - | 5 W/m² | - |
| 1778022972 | 11.67° C | 99% | 1008.6 hPa | 0 mm | - | 10 W/m² | - |
| 1778022671 | 11.67° C | 99% | 1008.4 hPa | 0 mm | - | 13 W/m² | - |
| 1778022368 | 11.67° C | 99% | 1008.4 hPa | 0 mm | - | 14 W/m² | - |
| 1778022064 | 11.67° C | 99% | 1008.6 hPa | 0 mm | - | 26 W/m² | - |
| 1778021761 | 11.67° C | 99% | 1008.7 hPa | 0 mm | - | 48 W/m² | - |
* Rain latest hour (hover to see other rain measurements)
** Current wind speed in m/s (hover to see current wind gust speed)